Location: *
(42.5271°S, 179.1988°W)
Time: 16:28:49
(UTC+00:00)

Daily predictions for brighter satellites

Satellite Brightness Start Highest point End
(mag) Time Altitude Azimuth Time Altitude Azimuth Time Altitude Azimuth
Cosmos 2228 Rocket 3.5 12:05:29 61° SSE 12:05:29 61° SSE 12:09:23 10° S
Cosmos 1869 Rocket 4.3 12:01:19 10° S 12:05:15 50° SE 12:05:15 50° SE
USA 229 DEB 3.8 12:06:07 55° NNW 12:08:02 86° NE 12:15:28 10° SE
USA 229 3.8 12:06:14 56° NNW 12:08:08 85° NE 12:15:34 10° SE
SL-8 Rocket 4.1 12:11:35 10° SSW 12:17:44 59° W 12:18:22 56° WNW
Cosmos 1242 Rocket 4.5 12:23:26 27° SE 12:23:26 27° SE 12:25:18 10° SSE
Meteor 1-27 Rocket 3.7 12:22:10 65° ENE 12:22:18 65° E 12:27:50 10° SSE
Helios 1B rocket 3.3 12:25:48 49° SSW 12:25:48 49° SSW 12:28:55 10° SSW
SL-16 R/B 2.8 12:19:24 10° SSW 12:25:01 52° ESE 12:26:22 43° ENE
NOSS 3-1 (A) 4.1 12:22:21 47° NW 12:25:17 89° WSW 12:33:09 10° SE
Cosmos 1867 3.6 12:22:41 10° SSW 12:28:06 70° SE 12:28:37 65° E
Lacrosse 5 1.9 12:29:38 79° S 12:29:38 79° S 12:34:35 10° SE
Cosmos 2322 Rocket 3.0 12:26:29 10° SSW 12:32:04 47° ESE 12:33:51 36° ENE
ALOS 2 3.0 12:27:44 10° S 12:31:35 63° SSW 12:31:35 63° SSW
Cosmos 2360 Rocket 3.9 12:27:47 10° S 12:32:41 29° SE 12:36:20 15° ENE
Meteor 1-11 Rocket 3.6 12:29:44 10° S 12:35:29 87° W 12:35:50 79° N
Cosmos 1302 Rocket 4.4 12:35:44 10° SSW 12:40:30 54° W 12:40:30 54° W
Resurs 1-4 Rocket 2.0 12:42:05 83° NNW 12:42:13 85° WNW 12:47:40 10° SSW
CZ-2D R/B 1.9 12:45:29 81° WNW 12:45:31 81° WNW 12:50:52 10° SSW
Cosmos 1821 Rocket 3.9 12:40:38 10° S 12:46:54 83° E 12:47:56 64° NNE
Cosmos 1980 Rocket 3.3 12:42:21 10° SW 12:46:28 29° W 12:46:28 29° W
Cosmos 1707 Rocket 3.9 12:49:22 67° S 12:49:22 67° S 12:53:18 10° S
NPP 3.5 12:56:46 76° NW 12:57:01 78° WNW 13:02:30 10° SSW
Cosmos 1544 4.3 12:55:28 10° S 12:58:14 41° SSE 12:58:14 41° SSE
ADEOS II 2.5 12:58:09 49° ENE 12:59:11 59° ESE 13:04:27 10° S
AQUA 3.8 12:59:33 85° SE 12:59:33 85° SE 13:04:22 10° SSW
Cosmos 1536 3.9 12:57:45 10° SSW 13:00:37 41° SW 13:00:37 41° SW
Helios 1A 4.0 13:00:05 10° SSE 13:03:46 38° E 13:03:46 38° E
Cosmos 1733 Rocket 3.1 13:07:30 10° S 13:11:45 77° S 13:11:45 77° S
Cosmos 1992 Rocket 3.9 13:09:53 10° SSW 13:15:06 69° WNW 13:15:06 69° WNW
Cosmos 1833 4.3 13:18:45 55° NNE 13:19:33 61° ENE 13:25:14 10° SSE
IRS-1D 3.4 13:21:52 71° NNE 13:22:28 90° ESE 13:27:35 10° SSW
Nadezhda 3 Rocket 4.4 13:22:01 45° WNW 13:23:20 52° WSW 13:29:39 10° S
USA 234 3.2 13:20:58 10° SE 13:27:35 82° NE 13:29:39 48° NW
Cosmos 1140 Rocket 4.2 13:26:50 38° NE 13:27:39 40° ENE 13:32:30 10° SE
Cosmos 2242 Rocket 4.1 13:28:46 48° ENE 13:29:14 50° E 13:33:43 10° SSE
Cosmos 1437 4.4 13:38:21 30° SSE 13:38:21 30° SSE 13:40:04 10° SSE
Cosmos 1461 4.3 13:33:51 10° SSW 13:37:36 36° SE 13:40:41 15° ENE
Meteor 2-4 Rocket 4.3 13:36:06 37° NE 13:38:00 52° E 13:43:43 10° SSE
COSMOS 2487 3.5 13:38:47 41° ESE 13:38:47 41° ESE 13:41:27 10° SSE
USA 307 3.3 13:34:01 10° SW 13:38:24 66° SE 13:41:55 15° ENE
Cosmos 1605 Rocket 4.0 13:33:15 10° S 13:39:29 78° E 13:41:49 40° NNE
Cosmos 2333 Rocket 3.4 13:34:43 10° SSW 13:40:10 41° ESE 13:45:33 10° NE
Meteor 1-18 Rocket 4.3 13:39:25 53° N 13:40:57 90° E 13:47:00 10° S
Cosmos 1975 3.0 13:37:43 10° S 13:41:54 69° E 13:42:05 68° ENE
Cosmos 1862 Rocket 4.1 13:43:43 46° WSW 13:43:43 46° WSW 13:48:08 10° S
IRS-P3 4.1 13:43:58 46° NNE 13:45:40 83° ESE 13:51:05 10° SSW
Cosmos 2251 Rocket 4.3 13:45:39 37° W 13:46:49 42° WSW 13:51:57 10° S
USA 308 3.0 13:42:39 10° SW 13:47:04 75° SE 13:50:17 18° ENE
Cosmos 1743 4.1 13:44:41 10° SSW 13:47:16 29° WSW 13:47:16 29° WSW
Cosmos 2219 Rocket 3.4 13:43:01 10° SSW 13:48:27 42° ESE 13:53:47 10° NE
USA 305 2.9 13:44:08 10° SW 13:48:32 80° SE 13:50:36 30° ENE
CBERS-1 4.1 13:49:19 55° NW 13:49:52 58° W 13:55:02 10° SSW
CZ-4B R/B 3.5 13:49:19 54° N 13:50:34 79° WNW 13:55:52 10° SSW
Cosmos 407 Rocket 3.4 13:55:18 57° NNW 13:56:25 89° ENE 14:01:39 10° SSE
COSMOS 2428 3.8 13:54:07 10° SSW 13:59:40 44° ESE 14:05:09 10° NE
Meteor 1-19 Rocket 4.5 13:58:22 45° NW 14:00:09 64° WSW 14:06:08 10° S
USA 306 2.8 13:55:52 10° SW 14:00:15 85° NW 14:01:54 37° NE
Cosmos 1023 Rocket 4.4 13:59:51 54° NNW 14:01:03 85° ENE 14:06:14 10° SSE
Meteor 2-9 Rocket 4.2 13:57:37 10° SSW 14:03:15 66° W 14:04:56 45° NNW
COBE Rocket 4.3 13:59:21 10° S 14:03:54 47° WSW 14:04:41 42° WNW
Cosmos 2333 4.3 13:58:11 10° SSW 14:03:58 78° ESE 14:08:09 19° NNE
SL-16 R/B 3.5 14:04:18 10° SW 14:08:11 23° W 14:08:11 23° W
Cosmos 1271 Rocket 3.8 14:11:17 31° WSW 14:11:17 31° WSW 14:14:33 10° S
Lacrosse 5 3.8 14:08:50 10° WSW 14:13:02 24° SSW 14:17:16 10° SSE
Okean 1-7 3.1 14:14:40 54° NW 14:15:26 65° W 14:19:55 10° S
Cosmos 2322 Rocket 3.3 14:11:08 10° SW 14:15:37 26° W 14:15:37 26° W
SL-16 R/B 3.2 14:09:42 10° SSE 14:15:51 49° E 14:19:55 21° NNE
ARIANE 5 R/B 2.4 14:14:52 42° N 14:16:33 72° WNW 14:21:39 10° SSW
Cosmos 2360 Rocket 2.5 14:11:27 10° SW 14:16:52 46° WNW 14:18:01 40° NW
COSMOS 2441 4.4 14:17:46 27° NNE 14:20:26 79° ESE 14:25:21 10° S
Cosmos 2100 Rocket 4.3 14:14:16 10° S 14:20:30 65° E 14:25:47 14° NNE
FALCON 9 DEB 3.8 14:17:52 10° SW 14:21:05 51° SSE 14:24:16 10° ENE
Resurs 1-4 Rocket 4.3 14:23:10 10° W 14:23:10 10° W 14:23:50 10° WSW
Cosmos 2297 Rocket 4.0 14:22:17 11° NNE 14:26:28 24° ENE 14:30:57 10° SE
MINOTAUR 4 R/B 4.0 14:23:58 10° S 14:27:38 79° WSW 14:28:09 62° NW
IDEFIX/ARIANE 42P 2.8 14:26:54 38° NNW 14:28:32 52° W 14:33:42 10° SSW
Cosmos 1727 Rocket 4.0 14:27:43 33° NNW 14:30:33 66° W 14:36:48 10° S
Cosmos 1340 Rocket 2.7 14:27:23 10° SSW 14:31:22 68° W 14:32:13 50° NNW
Abrixas rocket 4.2 14:30:32 15° SW 14:32:01 22° S 14:34:14 10° SE
Spot 4 Rocket 4.0 14:32:25 27° N 14:35:18 74° WNW 14:40:33 10° SSW
ADEOS II 3.7 14:39:05 18° W 14:39:15 18° W 14:42:52 10° SW
MSX 3.9 14:37:03 28° N 14:40:05 58° W 14:45:49 10° SSW
Aureole 1 Rocket 4.2 14:39:35 19° N 14:44:04 56° ENE 14:49:02 10° SSE
CENTAUR R/B 3.9 14:42:06 10° SSW 14:47:26 34° SE 14:52:14 10° ENE
Iridium 2 3.6 14:46:16 39° NNW 14:47:33 72° W 14:51:25 10° S
CZ-2D R/B 3.8 14:46:48 34° NNW 14:48:18 49° W 14:52:33 10° SSW
DELTA 2 R/B (1) 3.7 14:45:38 28° WNW 14:48:29 60° N 14:54:02 10° E
Cosmos 2061 Rocket 4.4 14:43:46 10° S 14:50:03 66° E 14:56:13 10° NNE
CREW DRAGON DEMO-1 DEB 3.1 14:51:15 43° W 14:51:54 56° SSW 14:54:51 10° SE
Cosmos 2221 Rocket 3.6 14:49:30 26° N 14:51:59 85° E 14:56:30 10° S
ALOS 3.9 14:48:35 10° NE 14:52:50 35° ESE 14:57:07 10° S
USA 238 DEB 4.5 14:46:41 10° SSW 14:53:29 54° SE 14:59:56 10° NE
USA 238 4.5 14:46:48 10° SSW 14:53:36 53° SE 15:00:03 10° NE
Cosmos 676 Rocket 4.2 14:52:55 28° NW 14:55:35 60° WSW 15:00:48 10° SSE
SeaSat 1 4.2 14:55:28 10° SE 14:59:39 26° ENE 15:03:48 10° NNE
ATLAS CENTAUR R/B 2.7 14:56:33 10° SSW 15:01:03 46° SE 15:05:16 10° NE
UNK 3.9 14:56:24 10° S 15:01:07 64° WSW 15:03:47 25° NNW
Cosmos 1733 4.3 14:58:19 10° S 15:02:08 46° ESE 15:05:53 10° NNE
CZ-2C R/B 2.4 14:57:43 10° NNE 15:02:48 86° WNW 15:07:47 10° SSW
Cosmos 1766 4.2 15:01:03 10° S 15:04:53 48° ESE 15:08:42 10° NNE
FALCON 9 DEB 2.8 15:02:06 10° WSW 15:05:22 67° NW 15:08:35 10° NE
Cosmos 1378 Rocket 4.5 15:01:20 10° NNE 15:05:36 47° E 15:09:56 10° SSE
DELTA 2 DEB (DPAF) 4.1 15:01:12 10° SSE 15:05:45 87° W 15:08:48 20° NNW
FALCON 9 DEB 2.9 15:02:50 10° WSW 15:06:03 56° NW 15:09:13 10° NE
Spot 1 4.2 15:03:14 10° SSE 15:07:23 68° ENE 15:10:41 16° N
Cosmos 2151 Rocket 3.7 15:02:53 10° S 15:07:23 81° E 15:11:52 10° N
Cosmos 1954 Rocket 4.5 15:04:41 24° NW 15:07:33 47° WSW 15:12:37 10° S
USA 234 4.3 15:04:12 10° SE 15:10:14 39° SSW 15:16:13 10° W
Cosmos 1378 3.5 15:09:16 27° NW 15:11:00 49° W 15:14:44 10° S
Genesis I 3.9 15:09:56 23° WNW 15:11:58 43° SW 15:15:47 10° SSE
PSLV R/B 3.5 15:11:12 10° N 15:15:31 81° WNW 15:19:58 10° SSW
CZ-2C R/B 3.3 15:13:23 21° NNW 15:15:42 42° W 15:19:36 10° SSW
Cosmos 1461 4.0 15:13:16 10° WSW 15:16:28 22° WNW 15:16:53 22° WNW
Cosmos 2173 Rocket 4.2 15:11:31 10° SSW 15:17:30 49° W 15:22:47 13° NNW
Cosmos 1864 Rocket 4.5 15:11:30 10° S 15:17:47 86° W 15:24:04 10° N
USA 307 4.2 15:14:46 10° WSW 15:17:28 20° WNW 15:17:28 20° WNW
Cosmos 1802 Rocket 4.2 15:14:05 10° SSW 15:20:27 60° W 15:26:42 10° N
Sich 1 Rocket 4.4 15:18:36 10° SSW 15:22:38 33° W 15:25:15 18° NW
Cosmos 921 Rocket 3.7 15:18:35 10° S 15:23:08 62° ESE 15:27:35 10° NNE
Cosmos 1850 Rocket 4.0 15:19:08 16° NNW 15:23:21 87° WSW 15:28:40 10° SSE
Cosmos 2333 Rocket 3.0 15:19:18 10° SW 15:24:15 30° WNW 15:28:35 12° NNW
Cosmos 2123 Rocket 4.0 15:18:33 13° NNW 15:24:17 72° W 15:30:37 10° S
FENGYUN 3A 3.8 15:19:06 10° NNE 15:24:34 81° ESE 15:30:06 10° SSW
Cosmos 2237 Rocket 2.4 15:19:12 10° SSW 15:24:54 77° ESE 15:30:33 10° NNE
USA 308 4.5 15:23:40 10° W 15:25:50 17° WNW 15:25:50 17° WNW
Cosmos 807 4.4 15:24:52 10° SSW 15:28:34 62° W 15:31:24 12° N
Milstar 3 Cent rocket 3.6 15:27:03 13° NNW 15:28:51 16° N 15:31:56 10° NE
Cosmos 2219 3.3 15:24:48 13° NNW 15:29:54 80° ENE 15:35:37 10° SSE
ARGOS Delta rocket 4.4 15:25:06 10° N 15:30:20 51° W 15:35:46 10° SSW
CZ-4C R/B 3.5 15:27:15 10° S 15:31:24 69° WSW 15:35:13 13° NNW
Cosmos 2233 Rocket 4.2 15:25:35 10° S 15:32:01 79° E 15:38:22 10° N
Meteor 1-31 Rocket 4.4 15:28:23 10° NE 15:32:05 39° ESE 15:35:49 10° S
Cosmos 2219 Rocket 3.0 15:27:18 10° SW 15:32:12 30° WNW 15:37:02 10° NNW
Okean 2 Rocket 3.7 15:29:46 10° SSW 15:34:03 38° W 15:37:59 11° NNW
Cosmos 1763 Rocket 3.4 15:33:15 10° SSW 15:38:20 64° WNW 15:43:22 10° N
FALCON 9 DEB 3.8 15:36:58 10° WSW 15:39:54 30° NW 15:42:49 10° NNE
CBERS 1 LM4 rocket 4.5 15:36:57 10° N 15:42:01 67° WNW 15:46:58 10° SSW
Cosmos 841 Rocket 3.9 15:37:32 10° SSW 15:42:50 70° ESE 15:48:00 10° NNE
ADEOS 3.7 15:38:18 10° NNE 15:43:34 83° ESE 15:48:53 10° SSW
COSMOS 2428 3.6 15:38:49 10° SW 15:43:42 29° WNW 15:48:32 10° NNW
Meteor 1-22 Rocket 4.1 15:38:35 10° S 15:43:58 85° W 15:49:21 10° N
Cosmos 2227 Rocket 2.3 15:39:58 10° NNW 15:45:39 86° ENE 15:51:23 10° SSE
CZ-4C R/B 3.6 15:39:22 10° NNW 15:47:28 56° ENE 15:54:34 10° SE
ADEOS Rocket 4.4 15:42:53 10° SSE 15:49:55 51° E 15:57:23 10° N
Meteor 1-28 Rocket 3.4 15:48:45 10° S 15:52:32 57° WSW 15:56:16 10° NNW
NOSS 3-2 (A) 3.4 15:48:50 10° SW 15:54:57 55° WNW 16:00:20 10° NNE
Lacrosse 4 Rocket 1.3 15:52:02 10° SSW 15:56:09 88° WNW 16:00:12 10° NNE
Cosmos 1726 3.7 15:52:40 10° S 15:56:12 39° ESE 15:59:41 10° NNE
FALCON 9 DEB 4.4 15:54:23 10° W 15:56:43 18° NW 15:59:02 10° N
BREEZE-M DEB 3.7 15:53:17 10° W 15:57:05 69° S 16:03:16 10° E
Cosmos 1980 3.8 15:51:38 10° SSW 15:57:15 56° WNW 16:02:48 10° N
ERBS 2.3 15:53:52 10° SW 15:57:20 88° NW 16:00:45 10° NE
Cosmos 1674 Rocket 4.3 15:53:16 10° NW 15:57:21 37° WSW 16:01:28 10° S
Lacrosse 5 4.4 15:54:31 10° SW 15:57:40 16° S 16:00:51 10° SE
NOSS 3-4 (A) 4.3 15:50:31 10° NNW 15:58:51 81° ENE 16:06:51 10° SE
NOSS 3-4 (C) 4.3 15:50:38 10° NNW 15:58:58 81° ENE 16:06:57 10° SE
SL-16 R/B 3.6 15:53:46 10° S 15:59:09 30° WSW 16:04:30 10° WNW
Cosmos 1470 3.1 15:57:01 10° S 16:01:04 73° E 16:05:01 10° NNE
SL-08 R/B 3.6 15:57:59 10° SSE 16:03:01 79° ENE 16:07:54 10° N
NOSS 3-2 (C) 3.3 15:57:03 10° SW 16:03:27 79° WNW 16:09:00 10° NNE
NOSS 0 Rocket 4.5 15:59:17 10° SW 16:05:00 37° WNW 16:10:38 10° N
Cosmos 2208 Rocket 4.4 16:00:14 10° SSW 16:05:39 75° ESE 16:11:03 10° NNE
Cosmos 1455 Rocket 4.3 16:01:27 10° S 16:05:51 48° ESE 16:10:12 10° NNE
Abrixas rocket 3.1 16:04:25 10° SW 16:07:00 40° SSE 16:09:35 10° E
SJ-12 4.1 16:04:50 10° NNE 16:08:59 82° ESE 16:13:09 10° S
Cosmos 2297 Rocket 2.6 16:04:38 10° NW 16:10:08 50° WSW 16:15:43 10° SSE
Timation 2 Rocket 4.3 16:04:42 10° NW 16:10:39 51° WSW 16:16:32 10° SSE
Cosmos 1484 Rocket 3.3 16:08:00 10° NNW 16:11:37 38° W 16:15:14 10° SSW
ATLAS 2AS CENTAUR R/B 2.7 16:08:47 10° NNW 16:14:58 72° ENE 16:21:15 10° SE
Cosmos 1814 Rocket 4.1 16:11:37 10° SSW 16:17:01 81° WNW 16:22:18 10° NNE
CZ-3 R/B 4.2 15:48:31 10° W 16:26:58 47° NNW 16:37:05 10° NE
